Location: Bennemühlen
(52.5740°N, 9.7135°E)
Time: 16:53:50
(UTC+00:00)

Cosmos 1356 Rocket - Pass Details

Date: 19 May 2025
Orbit: 517 x 566 km, 81.2° (Epoch: 16 June)

Event Time Altitude Azimuth Distance (km) Brightness Sun altitude
Exits shadow 20:28:31 - 163° (SSE) 1,901 5.5 -8.7°
Reaches altitude 10° 20:28:38 10° 162° (SSE) 1,861 5.4 -8.7°
Maximum altitude 20:32:26 38° 95° (E) 880 4.0 -9.1°
Drops below altitude 10° 20:36:14 10° 27° (NNE) 1,860 6.4 -9.4°
Sets 20:38:31 0° 19° (NNE) 2,754 7.4 -9.7°
